Location: Chenango Forks
(42.2242°N, 75.8278°W)
Time: 21:22:24
(UTC-04:00)

Daily predictions for brighter satellites

Satellite Brightness Start Highest point End
(mag) Time Altitude Azimuth Time Altitude Azimuth Time Altitude Azimuth
Cosmos 1869 4.4 20:17:32 10° SE 20:20:42 24° E 20:23:54 10° NE
Cosmos 1697 Rocket 2.9 20:16:11 10° SSW 20:21:50 80° WNW 20:27:31 10° NNE
SJ-6B 4.2 20:20:27 10° S 20:24:11 42° W 20:28:01 10° NNW
ATLAS CENTAUR R/B 2.5 20:23:08 10° WNW 20:25:24 41° SW 20:30:18 10° SSE
Cosmos 1400 Rocket 2.7 20:22:59 10° N 20:26:54 88° E 20:30:49 10° S
Cosmos 2297 Rocket 3.8 20:24:06 10° NW 20:29:12 35° WSW 20:34:17 10° S
OTV 4 2.6 20:27:33 10° WSW 20:29:23 16° SSW 20:31:15 10° SSE
Nadezhda 4 Rocket 4.0 20:23:16 10° N 20:29:33 84° E 20:35:52 10° S
ALOS 3.5 20:28:03 10° S 20:32:29 44° W 20:36:59 10° NNW
DELTA 2 R/B (1) 4.2 20:27:13 10° W 20:32:35 47° SSW 20:37:56 10° SE
Cosmos 1892 2.7 20:29:44 10° N 20:33:32 85° W 20:37:20 10° S
Cosmos 1634 Rocket 4.2 20:30:59 10° SSE 20:37:01 51° E 20:43:07 10° NNE
Cosmos 1092 Rocket 4.1 20:31:54 10° N 20:38:15 71° E 20:44:34 10° SSE
Cosmos 2263 Rocket 3.5 20:33:54 10° N 20:38:23 24° NE 20:42:39 11° ESE
Intercosmos 25 Rocket 4.3 20:36:05 10° SE 20:38:38 22° E 20:41:32 10° NNE
Meteor 2-3 Rocket 4.2 20:33:06 10° NNW 20:38:47 69° W 20:44:28 10° S
Cosmos 1315 Rocket 2.9 20:35:10 10° N 20:39:15 64° E 20:43:14 10° SSE
H-2A R/B 3.8 20:37:32 10° S 20:41:20 48° W 20:45:07 10° NNW
Cosmos 2322 Rocket 2.8 20:37:40 10° SSE 20:42:35 32° ESE 20:47:30 10° NE
USA 186 1.3 20:40:39 10° SSE 20:43:17 86° ENE 20:46:08 10° N
Cosmos 1707 Rocket 3.5 20:42:57 10° S 20:47:23 77° E 20:51:49 10° N
YAOGAN 6 4.0 20:45:47 13° ESE 20:47:59 22° ENE 20:50:50 10° NNE
Abrixas rocket 2.1 20:44:56 10° WSW 20:48:13 86° SSE 20:51:31 10° ENE
Spot 2 Rocket 4.0 20:43:32 10° S 20:48:34 63° WSW 20:53:38 10° NNW
USA 267 4.3 20:43:58 10° NE 20:50:12 49° NNW 20:56:26 10° WSW
Cosmos 2360 Rocket 3.7 20:52:40 14° ESE 20:54:03 15° E 20:57:10 10° ENE
Cosmos 1980 Rocket 2.5 20:48:40 10° SSW 20:54:19 74° WNW 21:00:03 10° NNE
Cosmos 1733 Rocket 3.9 20:50:21 10° NNE 20:54:23 32° ENE 20:57:20 16° SE
Helios 1B rocket 2.3 20:54:21 10° NNE 20:58:27 71° ESE 21:02:32 10° S
CZ-2D R/B 4.4 20:55:59 10° S 20:59:42 44° W 21:03:27 10° NNW
Cosmos 1862 Rocket 4.4 20:56:59 12° SSE 21:00:24 31° E 21:04:22 10° NNE
Meteor 1-29 3.0 20:56:58 10° NNE 21:00:25 58° E 21:03:49 10° S
Lacrosse 4 Rocket 2.1 20:56:23 10° NNW 21:00:29 43° ENE 21:03:18 19° ESE
Cosmos 1869 Rocket 4.4 21:00:12 10° NNW 21:04:36 54° W 21:08:57 10° S
Cosmos 1825 2.3 21:02:00 10° N 21:05:45 54° E 21:08:24 18° SSE
Cosmos 1862 3.9 21:02:25 10° N 21:06:12 38° ENE 21:08:22 21° SE
Envisat 3.0 21:03:18 10° SSE 21:08:23 86° ENE 21:13:31 10° NNW
SL-16 R/B 2.3 21:03:53 10° S 21:09:22 53° ESE 21:14:53 10° NNE
Cosmos 1302 Rocket 4.4 21:04:16 10° SSW 21:09:26 67° WNW 21:14:37 10° NNE
Cosmos 1627 Rocket 4.4 21:05:18 10° N 21:11:35 83° E 21:17:43 10° S
Cosmos 1939 Rocket 2.8 21:09:41 14° SSE 21:13:12 82° ENE 21:17:15 10° N
Cosmos 2242 Rocket 3.5 21:09:13 10° S 21:13:43 72° E 21:18:13 10° NNE
Milstar 3 4.0 21:07:33 10° WSW 21:13:51 27° S 21:17:22 17° SE
SJ-11-01 4.2 21:10:59 11° SSE 21:15:27 89° ENE 21:20:09 10° NNW
Cosmos 2195 Rocket 4.5 21:10:53 10° N 21:17:02 87° W 21:23:10 10° S
SPOT 5 4.0 21:15:36 21° ESE 21:17:34 27° ENE 21:21:32 10° N
CZ-4B DEB 3.0 21:15:52 16° S 21:18:10 63° W 21:21:12 10° NNW
Cosmos 2279 Rocket 4.0 21:13:19 10° S 21:19:28 65° E 21:25:38 10° NNE
ATLAS 5 CENTAUR R/B 3.3 21:15:12 10° NNW 21:20:36 35° NE 21:24:21 19° E
USA 234 3.4 21:20:01 19° SE 21:24:58 69° SW 21:31:32 10° NW
OAO 3 Rocket 4.0 21:23:23 10° WSW 21:27:49 35° S 21:29:18 29° SE
Resurs 01 Rocket 4.2 21:26:28 10° SW 21:29:43 20° W 21:32:58 10° NW
Helios 1A 4.3 21:27:39 10° SSW 21:31:37 39° W 21:35:37 10° NNW
Atlas Centaur 2 3.9 21:26:32 10° SSW 21:32:27 25° SSE 21:34:14 24° SE
ARGOS 3.8 21:30:20 27° ESE 21:32:32 38° ENE 21:37:28 10° N
Cosmos 1428 Rocket 4.4 21:30:40 10° N 21:36:48 81° E 21:41:11 20° SSE
MOS 1-B Rocket 4.5 21:35:42 27° ESE 21:38:21 42° ENE 21:43:38 10° N
Cosmos 2180 Rocket 4.5 21:33:00 10° S 21:39:21 76° E 21:45:43 10° N
Cosmos 1844 Rocket 4.4 21:38:14 10° N 21:42:04 18° NE 21:44:04 16° ENE
ERS-1 Rocket 2.9 21:42:11 26° SSE 21:45:03 88° WSW 21:50:06 10° NNW
Cosmos 1408 3.9 21:44:16 10° NNW 21:47:44 38° W 21:50:06 17° SSW
ERBS 3.3 21:49:05 10° WNW 21:52:18 36° SW 21:52:42 35° SSW
Sich 1 Rocket 3.6 21:48:41 10° N 21:53:06 60° E 21:53:57 50° SE
Meteor 1-14 Rocket 4.4 21:52:30 10° N 21:58:02 54° ENE 21:59:36 41° SE
SeaSat 1 2.4 22:00:12 47° SE 22:01:34 75° ENE 22:06:31 10° NNW
Cosmos 1992 Rocket 4.3 21:58:05 10° SSW 22:03:18 69° WNW 22:08:33 10° NNE
USA 229 DEB 3.9 22:04:47 36° SSE 22:06:50 45° ESE 22:13:21 10° NE
H-2A R/B 3.4 22:07:13 26° ENE 22:07:13 26° ENE 22:10:28 10° N
USA 229 3.9 22:05:03 36° SSE 22:06:56 45° ESE 22:13:26 10° NE
MetOp-A 4.2 22:08:20 37° S 22:10:29 75° WSW 22:15:52 10° NNW
Cosmos 1908 Rocket 3.4 22:06:09 10° N 22:10:31 88° W 22:11:04 68° S
USA 245 4.2 22:08:35 42° SSE 22:10:44 84° ENE 22:16:03 10° N
Landsat 7 4.4 22:11:17 39° ENE 22:11:24 39° ENE 22:15:49 10° N
Meteor 1-25 Rocket 4.2 22:12:06 10° N 22:17:38 57° ENE 22:18:23 53° ESE
COSMOS 2428 3.7 22:23:05 31° ENE 22:23:05 31° ENE 22:26:45 10° NE
Cosmos 1867 3.5 22:16:22 10° NNW 22:21:51 72° NE 22:22:40 61° ESE
Cosmos 2263 Rocket 2.6 22:17:13 10° NNW 22:22:38 54° WSW 22:24:22 39° SSW
Cosmos 1782 Rocket 3.5 22:20:02 10° N 22:24:09 73° NE 22:24:09 73° NE
H-2A R/B 1.9 22:24:03 64° ESE 22:24:25 67° ENE 22:29:22 10° N
Okean 2 Rocket 3.5 22:20:14 10° N 22:24:13 52° NE 22:24:13 52° NE
Abrixas rocket 4.0 22:22:19 10° WNW 22:25:17 30° N 22:25:18 30° N
Cosmos 2322 Rocket 3.6 22:21:19 10° SW 22:26:30 37° WNW 22:31:44 10° N
Terra 2.6 22:26:53 38° ENE 22:26:53 38° ENE 22:30:57 10° N
Meteor 2-10 Rocket 4.3 22:30:48 21° SSW 22:34:43 56° WNW 22:40:26 10° N
Cosmos 2360 Rocket 2.3 22:34:16 28° SW 22:37:19 75° WNW 22:43:01 10° NNE
SL-08 RB Rocket 3.9 22:37:52 64° WSW 22:38:01 65° WSW 22:42:35 10° NNW
Lacrosse 4 Rocket 3.5 22:35:49 10° WNW 22:38:55 19° WSW 22:39:39 19° WSW
Meteor 1-20 Rocket 4.0 22:34:17 10° N 22:39:51 79° E 22:40:13 74° SE
Cosmos 1844 4.5 22:36:16 10° N 22:41:34 38° ENE 22:41:50 38° ENE
Cosmos 2322 3.7 22:40:41 42° SW 22:42:43 79° WNW 22:48:28 10° NNE
Cosmos 968 Rocket 3.8 22:40:52 10° NNW 22:45:57 55° WSW 22:46:23 54° SW
Geosat 4.2 22:43:51 10° NNE 22:47:59 59° NE 22:47:59 59° NE
Meteor 2-6 Rocket 4.5 22:49:27 57° ENE 22:49:27 57° ENE 22:54:54 10° NNE
Meteor 1-22 4.5 22:44:09 10° N 22:49:32 86° W 22:49:38 85° SW
ASTEX 1 3.9 22:50:52 52° NE 22:50:52 52° NE 22:55:00 10° N
SL-16 R/B 4.3 22:49:10 10° WSW 22:53:47 25° NW 22:58:26 10° N
Okean 1-7 3.7 22:55:19 53° NW 22:55:19 53° NW 22:59:07 10° N
SPOT 5 4.0 22:54:50 33° WSW 22:55:31 34° W 22:59:51 10° NNW
CZ-4C R/B 3.9 22:50:53 10° NNW 22:57:10 34° NE 22:59:45 28° ENE
Cosmos 1782 4.4 22:59:16 31° N 22:59:16 31° N 23:01:27 10° N
Cosmos 2221 Rocket 4.5 23:00:03 45° WNW 23:00:03 45° WNW 23:04:05 10° N
Cosmos 2333 Rocket 3.7 23:04:54 24° ENE 23:04:54 24° ENE 23:07:28 10° NE
Cosmos 2333 4.5 23:05:37 58° NE 23:05:37 58° NE 23:10:17 10° NNE
ATLAS 5 CENTAUR R/B 2.8 22:59:41 10° NW 23:05:33 51° WSW 23:05:54 51° SW
Cosmos 2237 Rocket 4.0 23:14:49 20° ENE 23:14:49 20° ENE 23:16:46 10° NE
Cosmos 1244 Rocket 4.4 23:05:42 10° N 23:11:56 79° W 23:12:15 76° SW
Cosmos 2278 Rocket 3.1 23:09:24 10° N 23:14:18 38° NE 23:14:18 38° NE
Meteor 1-27 Rocket 4.2 23:19:30 51° NE 23:19:30 51° NE 23:23:47 10° NNE
SL-19 R/B 4.4 23:14:19 10° NNE 23:20:29 75° WNW 23:20:40 75° W
Atlas Centaur 2 4.4 23:14:07 10° WSW 23:16:54 22° SW 23:16:54 22° SW
Cosmos 1553 Rocket 4.0 23:23:21 75° NE 23:23:21 75° NE 23:29:09 10° N
Cosmos 1844 Rocket 3.0 23:21:00 10° NNW 23:25:44 62° NW 23:25:44 62° NW
SL-08 R/B 4.4 23:23:27 10° N 23:29:11 78° NNW 23:29:11 78° NNW
Meteor 1-11 Rocket 4.1 23:33:37 10° NNW 23:38:03 58° NNW 23:38:03 58° NNW
H-2A R/B 4.2 23:44:20 21° WNW 23:44:20 21° WNW 23:46:27 10° NW
Cosmos 2219 Rocket 2.9 23:45:20 49° NNE 23:45:20 49° NNE 23:49:23 10° NNE
S3M 4.2 23:51:34 63° NW 23:51:34 63° NW 23:57:15 10° N
